Starlink 34215

operational
NORAD ID: 64252 Int'l Des: 2025-119 Owner: SPXS Country: US Constellation: starlink
LEOCIRCULAR

Starlink 34215について

説明を読み込み中...

リアルタイム位置

3D地球を読み込み中...

次回通過

高度履歴

Altitude vs Time

uPlot chart will show altitude changes over time

軌道要素

1 64252U 25119V 25259.59335276 .00033063 00000-0 12037-2 0 9990
2 64252 43.0021 210.2437 0003765 267.6071 92.4349 15.27627504 17547
Epoch: Sep 16, 2025 • Age: 60 hours

現在のステータス

高度 486.4 km
速度 7.63 km/s
衛星直下点 35.56°N, 67.82°W
打ち上げ日 Jun 3, 2025
運用期間 0.2 years
タイプ internet

技術仕様

分類 Payload
質量 575.00 kg
乾燥質量 530.00 kg
総質量 575.00 kg
長さ 0.30 m
直径 4.10 m
スパン 29.00 m
形状 Box + pan
製造者 SPXS
バスタイプ Starlink V2MO
フェーズステータス In Orbit
所有者/国 SPXS/US

大規模コンステレーション

Loading constellations...